TIME,DELAY(SENSOR),PRES,T(CTD),SAL,OXYGEN,RAWTEMP,T(OPTODE),TCPHASE,FLUOR,BETA(BETA700),BETA(BETA412),BETA(BETA440),CDOM,C(CSC),ED(ED412.40),ED(ED444.00),ED(ED489.70),ED(ED554.30),LU(LU411.80),LU(LU443.40),LU(LU489.60),LU(LU554.10),COMP,TILTX,TILTX(TILTY),CHECK
1343251741,5808,494.2600097656250000,7.0956997871398930,34.1958007812500000,67.2007675170898400,584.4973144531250000,7.0839309692382810,50.2613906860351560,53,106,93,81,79,15349,2147747648,2147421513,2148000512,2147873289,2147630226,2147080502,2148242898,2147204388,2958,4,13,55949
1343251870,5810,482.7699890136719000,7.2281999588012695,34.1893005371093750,73.0799331665039000,580.4373168945312000,7.2144222259521480,49.4616813659668000,53,106,90,80,80,15349,2147749211,2147421001,2148003885,2147873115,2147628717,2147082861,2148242816,2147203510,2246,4,13,17931
1343252009,5810,471.2099914550781000,7.3368000984191895,34.1729011535644500,80.2294235229492200,577.0330810546875000,7.3237190246582030,48.5446510314941400,51,109,86,81,80,15350,2147749321,2147423323,2148005686,2147872109,2147625472,2147079104,2148239040,2147202925,2241,4,13,24572
1343252150,5811,461.2600097656250000,7.5331001281738280,34.1725006103515600,86.5323867797851600,570.3408203125000000,7.5382838249206540,47.7112617492675800,52,107,87,80,79,15351,2147749394,2147422317,2147999753,2147872685,2147627840,2147079058,2148233216,2147201901,969,4,13,45272
1343252337,5809,449.7200012207031000,7.8411002159118650,34.1678009033203100,97.0868911743164000,561.6010131835938000,7.8179087638854980,46.4046516418457000,51,107,89,82,77,15348,2147746925,2147421156,2148000813,2147874605,2147627456,2147088283,2148236370,2147204169,50,4,13,23783
1343252497,5808,437.8500061035156000,7.9639000892639160,34.1688995361328100,100.3069992065429700,557.3353271484375000,7.9541449546813965,45.9912681579589840,52,107,90,79,79,15349,2147746340,2147423780,2148002907,2147873865,2147626349,2147088182,2148234560,2147203520,3514,4,13,59270
1343252612,5809,427.7600097656250000,8.1297998428344730,34.1651992797851560,106.3003005981445300,552.2443237304688000,8.1165428161621100,45.2810516357421900,50,107,88,81,78,15349,2147746112,2147424045,2148001572,2147873206,2147627200,2147093970,2148232585,2147203885,784,4,13,14489
1343252741,5807,416.3200073242187500,8.3604001998901370,34.1526985168457000,115.2643966674804700,545.4141845703125000,8.3340797424316400,44.2666702270507800,50,106,91,80,77,15351,2147745353,2147421065,2148001563,2147873069,2147621440,2147095579,2148233490,2147206710,1337,4,13,28659
1343252868,5806,405.2600097656250000,8.4263000488281250,34.1220016479492200,135.6784057617187500,542.9783935546875000,8.4115657806396480,42.3277282714843750,50,104,90,80,76,15354,2147745088,2147420050,2147999360,2147869449,2147621632,2147088475,2148226916,2147201801,2064,4,13,56746
1343252995,5808,393.8500061035156000,8.7574996948242190,34.1136016845703100,152.1201934814453000,532.6477050781250000,8.7396774291992190,40.7691802978515600,50,106,86,82,76,15354,2147742701,2147420123,2148000320,2147873481,2147623186,2147097755,2148228196,2147204361,2732,4,13,30884
1343253112,5806,383.2799987792969000,8.8999996185302730,34.1174011230468750,158.8428955078125000,527.7116088867188000,8.8961563110351560,40.1534996032714840,50,107,88,81,75,15355,2147745344,2147420361,2147998692,2147874907,2147620288,2147097060,2148229357,2147209782,3112,4,13,48666
1343253239,5806,371.7500000000000000,9.1143999099731450,34.1162986755371100,169.6540985107422000,520.9041137695312000,9.1116523742675780,39.2222213745117200,50,104,90,81,76,15354,2147743222,2147422665,2148001984,2147873828,2147617188,2147095552,2148227209,2147206226,27,4,13,65080
1343253380,5810,360.1700134277344000,9.2376003265380860,34.1166000366210940,173.7434997558593800,516.4943237304688000,9.2510633468627930,38.8514595031738300,50,105,88,80,75,15349,2147739236,2147424329,2148002797,2147873243,2147618349,2147101659,2148231268,2147204891,2143,4,14,56865
1343253519,5806,349.8800048828125000,9.5532999038696290,34.1180000305175800,187.0628051757812500,507.7218017578125000,9.5279693603515620,37.7838096618652340,49,109,89,80,73,15354,2147740278,2147422482,2148005312,2147873782,2147616960,2147097691,2148229449,2147207698,2096,4,13,48809
1343253690,5810,338.9500122070312500,9.8801002502441400,34.1372985839843750,183.0075073242187500,496.9507141113281000,9.8672122955322270,37.8726387023925800,49,109,89,82,72,15350,2147737618,2147422537,2148006089,2147870784,2147615250,2147105709,2148225417,2147201883,1707,4,14,19674
1343253841,5807,327.4599914550781000,10.1689996719360350,34.1355018615722660,189.4087982177734400,486.9237976074219000,10.1822900772094730,37.2764701843261700,50,107,89,80,72,15349,2147741924,2147423003,2148008100,2147874066,2147613065,2147098788,2148227181,2147209801,2674,4,13,21994
1343254000,5806,313.3399963378906000,11.1245002746582030,34.1702995300293000,201.6259002685547000,457.4150085449219000,11.1058101654052730,36.0142097473144500,50,106,87,81,71,15352,2147734966,2147423661,2148013449,2147873956,2147609344,2147110857,2148225060,2147208164,2830,4,13,46511
1343254103,5807,301.4599914550781000,11.5953998565673830,34.1929016113281250,203.6777954101562500,440.7980957031250000,11.6235704421997070,35.6201210021972660,50,111,88,81,70,15347,2147735113,2147424000,2148021412,2147874477,2147609289,2147113499,2148226651,2147207936,2473,4,13,29323
1343254194,5808,290.1499938964844000,11.9668998718261720,34.2149009704589840,199.9918060302734400,429.9114990234375000,11.9619598388671880,35.6688613891601560,49,108,87,80,72,15349,2147733897,2147427968,2148035474,2147873398,2147606217,2147120630,2148228233,2147210934,2973,4,14,12659
1343254305,5808,277.5199890136719000,12.3907003402709960,34.2382011413574200,201.0359039306640600,416.0440979003906000,12.3921203613281250,35.3836097717285160,48,110,91,81,72,15346,2147733723,2147431067,2148050669,2147873938,2147602770,2147123821,2148232731,2147205330,119,4,13,30302
1343254439,5811,266.9599914550781000,13.7059001922607420,34.3409004211425800,206.7808074951172000,374.3680114746094000,13.6796197891235350,34.3917808532714840,48,105,92,80,69,15350,2147731282,2147440274,2148070966,2147870336,2147600411,2147133878,2148237741,2147208758,1986,4,14,51413
1343254642,5812,253.9600067138672000,14.4425001144409180,34.4145011901855500,212.5894012451172000,349.9606933593750000,14.4305000305175780,33.6895294189453100,49,105,87,81,68,15349,2147724580,2147453760,2148107940,2147871652,2147591241,2147154057,2148252114,2147216256,984,4,14,7455
1343254781,5808,242.3300018310547000,15.0529003143310550,34.4730987548828100,211.8540039062500000,328.7669067382812500,15.0810203552246100,33.4155502319335940,48,107,90,80,68,15346,2147726875,2147471698,2148156864,2147871113,2147593097,2147163666,2148272493,2147217901,3155,4,14,6938
1343254916,5809,230.3399963378906200,15.7854995727539060,34.5461006164550800,210.4320983886718800,305.7933959960937500,15.7848701477050780,33.1583290100097660,49,106,88,81,67,15343,2147727817,2147499245,2148236242,2147874368,2147587949,2147183552,2148310656,2147218477,2413,3,15,44304
1343255031,5808,218.5299987792968800,16.2544994354248050,34.5889015197753900,208.7458038330078000,290.2163085937500000,16.2615108489990230,33.0278511047363300,49,108,88,81,67,15339,2147736155,2147553901,2148345993,2147871506,2147587291,2147218761,2148361152,2147223396,2091,3,13,24763
1343255134,5802,208.0500030517578000,17.0869998931884770,34.6782989501953100,206.7568969726562500,263.2043151855469000,17.0871906280517580,32.7533607482910160,51,107,88,81,67,15337,2147749467,2147615076,2148483017,2147871945,2147591195,2147262390,2148424219,2147233161,1260,3,14,5189
1343255257,5808,197.5599975585937500,17.7801990509033200,34.7722015380859400,208.5847015380859400,240.4709014892578000,17.7815704345703120,32.3287010192871100,55,107,88,80,66,15334,2147770322,2147699126,2148651940,2147871268,2147597504,2147311634,2148495232,2147237897,3296,3,13,9927
1343255312,5808,193.3000030517578000,17.9634990692138670,34.7947998046875000,209.6909942626953000,234.9243927001953000,17.9509601593017580,32.1893692016601560,55,109,87,80,65,15330,2147792091,2147769115,2148787602,2147872841,2147605037,2147347904,2148562578,2147243803,2333,3,14,25227
1343255367,5809,189.0099945068359400,18.0216999053955080,34.7868003845214840,210.5193023681640600,232.3103027343750000,18.0307903289794920,32.1069297790527340,56,109,90,82,66,15330,2147814454,2147829120,2148904996,2147872612,2147612352,2147385627,2148617792,2147241901,2873,2,15,59480
1343255422,5809,184.7899932861328000,18.2833995819091800,34.8120002746582000,210.4503936767578000,223.6811981201172000,18.2943000793457030,31.9906806945800780,60,107,87,82,66,15329,2147843785,2147904859,2149040466,2147878134,2147623515,2147433188,2148679241,2147248384,3059,3,15,29962
1343255477,5812,180.6799926757812500,18.6809997558593750,34.8594017028808600,210.1105957031250000,211.5115966796875000,18.6659603118896500,31.8413200378417970,61,114,90,81,65,15322,2147878582,2147992941,2149194057,2147875520,2147637193,2147472877,2148748644,2147253897,3071,3,14,10995
1343255555,5811,175.3999938964843800,19.0340995788574220,34.9035987854003900,210.1143951416015600,200.0569000244140600,19.0158405303955080,31.6833000183105470,66,114,87,80,65,15316,2147939337,2148129243,2149428662,2147882112,2147658971,2147550555,2148850953,2147262235,3134,3,15,7519
1343255622,5810,171.4100036621093800,19.5333995819091800,34.9581985473632800,209.9098052978515600,185.2496948242187500,19.4682807922363280,31.4923191070556640,72,113,90,81,64,15313,2147998893,2148246601,2149626322,2147880256,2147681014,2147612745,2148935734,2147270171,548,3,15,18544
1343255701,5808,167.0899963378906200,19.7870998382568360,34.9985008239746100,212.2252960205078000,173.7265014648437500,19.8205509185791000,31.2105903625488280,76,114,89,82,64,15306,2148089453,2148417426,2149913856,2147877403,2147715748,2147711716,2149064475,2147280073,1107,3,15,61984
1343255768,5805,163.6399993896484400,20.4719009399414060,35.0733985900878900,211.5892028808593800,154.2391052246093800,20.4167308807373050,30.9826908111572270,84,118,90,82,64,15297,2148176749,2148582948,2150170578,2147881142,2147747803,2147785965,2149162816,2147287881,1718,2,15,14756
1343255873,5804,159.9799957275390600,20.7996006011962900,35.0978012084960940,212.8036956787109400,143.0733947753906200,20.7586498260498050,30.7690296173095700,90,125,90,82,63,15294,2148309860,2148815707,2150524461,2147884278,2147792758,2147894464,2149307254,2147299254,1884,3,15,43697
1343256012,5808,156.3699951171875000,21.1576995849609380,35.1193008422851560,214.3706054687500000,131.1963043212890600,21.1226596832275400,30.5284996032714840,94,119,91,81,63,15288,2148485851,2149094528,2150930614,2147887076,2147861723,2148034084,2149471305,2147314276,2323,2,15,48591
1343256194,5813,151.8899993896484400,21.2887001037597660,35.1260986328125000,218.0184936523437500,126.0215988159179700,21.2813606262207030,30.2707099914550780,95,121,91,82,64,15273,2148825654,2149590290,2151625664,2147891291,2147991213,2148270299,2149753435,2147339035,1813,2,16,58255
1343256297,5809,147.2799987792968800,21.4780998229980470,35.1417007446289060,218.8027954101562500,119.6843032836914000,21.4758090972900400,30.1472091674804700,101,123,90,83,63,15271,2149231990,2150161883,2152426907,2147902802,2148153938,2148549293,2150087305,2147366701,1921,2,15,41651
1343256388,5807,143.8000030517578000,21.9032993316650400,35.1712989807128900,220.3148040771484400,106.6007995605468800,21.8776302337646500,29.8998394012451170,110,123,92,83,63,15257,2149594002,2150653622,2153092873,2147910025,2148296658,2148783689,2150353892,2147389915,1220,2,16,65455
1343256503,5810,139.5099945068359400,22.0219001770019530,35.1740989685058600,223.0343933105468800,101.9766998291015600,22.0197792053222660,29.7034492492675780,116,124,91,84,62,15251,2150278893,2151545517,2154265289,2147922669,2148564672,2149158985,2150811739,2147430701,1396,3,15,7354
1343256582,5808,135.8899993896484400,22.2203006744384770,35.1857986450195300,224.8182983398437500,95.9592895507812500,22.2048492431640620,29.5375595092773440,120,124,92,84,63,15243,2150954861,2152348690,2155255826,2147933622,2148820050,2149517705,2151195803,2147465883,505,3,15,47059
1343256685,5809,131.6900024414062500,22.8418998718261720,35.2159996032714840,225.7525024414062500,81.4241027832031200,22.6524295806884770,29.3054904937744140,128,120,90,83,61,15243,2152001014,2153629485,2156843584,2147953956,2149230482,2150064018,2151795328,2147519506,1165,3,16,63128
1343256862,5808,128.8000030517578000,23.0886993408203120,35.2359008789062500,230.6985931396484400,68.2239685058593800,23.0596008300781250,28.8995895385742200,123,121,93,83,62,15238,2152815058,2154568621,2157911104,2147971273,2149586724,2150478326,2152215542,2147563958,2226,3,16,47949
1343257120,5811,123.7900009155273400,23.3938999176025400,35.2473983764648440,235.7537994384765600,57.9149703979492200,23.3780899047851560,28.5335597991943360,112,121,91,84,60,15235,2154902235,2156940544,2160597787,2148017636,2150541440,2151618541,2153361846,2147667776,24,2,15,5297
1343257211,5810,119.8300018310546900,23.5382995605468750,35.2419013977050800,238.2039031982422000,53.1315383911132800,23.5260200500488280,28.3615894317626950,118,121,92,84,60,15228,2156608429,2158915657,2162801261,2148058432,2151356141,2152585353,2154334829,2147755044,1798,2,16,2238
1343257326,5807,116.2600021362304700,23.8122005462646500,35.2121009826660160,239.0883026123047000,45.3131904602050800,23.7680492401123050,28.2241191864013670,116,120,90,83,60,15220,2158350656,2160850596,2164856539,2148102208,2152224091,2153554660,2155255277,2147846464,582,3,16,45246
1343257476,5805,111.5299987792968800,23.8484992980957030,35.1902999877929700,240.1967010498047000,42.6075515747070300,23.8518695831298830,28.1404991149902340,111,122,93,83,61,15215,2161957092,2164878262,2168932224,2148195913,2154055195,2155554057,2157142299,2148026633,1633,1,16,18336
1343257579,5811,108.4199981689453100,24.3556995391845700,35.1633987426757800,239.8627929687500000,27.2956104278564450,24.3269195556640620,27.9656906127929700,105,122,90,86,59,15205,2164138002,2167283456,2171296850,2148260434,2155286985,2156864749,2158325613,2148146651,1732,2,16,49991
1343257825,5810,104.3799972534179700,24.6448001861572270,35.1408004760742200,240.3119964599609400,17.6938304901123050,24.6254291534423830,27.8272094726562500,88,128,94,85,59,15212,2168359305,2171927597,2175712009,2148393462,2158155337,2159821229,2160832201,2148370459,588,3,16,51332
1343258059,5808,99.7099990844726600,24.6938991546630860,35.1197013854980500,240.1575012207031200,15.6166296005249020,24.6900691986084000,27.8084106445312500,80,126,91,86,57,15213,2174318436,2178317293,2181524882,2148596068,2163088777,2164870189,2164865609,2148715757,1859,2,16,39725
1343258114,5808,97.1900024414062500,24.7127990722656250,35.1186981201171900,240.3251037597656200,15.0447301864624020,24.7078704833984380,27.7937507629394530,79,128,91,85,60,15208,2177636800,2181888539,2184997942,2148741348,2165611949,2167487908,2166962322,2148903140,1499,2,16,61864
1343258169,5809,94.3499984741211000,24.7961997985839840,35.1108016967773440,240.2765960693359400,12.5759096145629880,24.7847404479980470,27.7656097412109380,78,128,92,87,58,15201,2181543661,2186092297,2188978962,2148924205,2168576548,2170470144,2169291510,2149129106,1567,2,16,16044
1343258224,5806,91.4499969482421900,24.8397006988525400,35.1086006164550800,240.3173065185547000,11.0016603469848630,24.8337707519531250,27.7444496154785160,76,128,94,86,58,15195,2185553536,2190273828,2192981778,2149156260,2171875657,2173822189,2171926756,2149370468,1562,2,16,17449
1343258279,5805,88.5500030517578100,24.8908004760742200,35.1072998046875000,240.2828979492187500,8.8782367706298830,24.8999290466308600,27.7198009490966800,77,128,94,86,58,15191,2189797760,2194588242,2196989019,2149414381,2175495533,2177423305,2174712612,2149641600,1145,2,17,36559
1343258336,5807,85.7200012207031200,25.0149993896484380,35.1124992370605500,240.3329010009765600,5.6684641838073730,24.9999904632568360,27.6782493591308600,72,129,94,85,58,15192,2194450002,2199549394,2201868818,2149754496,2179365924,2181313910,2177718080,2149929691,1017,2,16,34873
1343258391,5810,83.2699966430664000,25.0172996520996100,35.1141014099121100,240.5937042236328000,5.2334718704223630,25.0135593414306640,27.6612606048584000,72,128,93,85,59,15201,2198068809,2203242139,2205291629,2150058139,2183362925,2185163913,2180539629,2150224813,1186,2,16,22558
1343258446,5808,80.7699966430664000,25.0529003143310550,35.1178016662597660,240.5836029052734400,3.9462978839874268,25.0536994934082030,27.6459197998046880,70,127,93,85,56,15199,2204178706,2209907611,2211974619,2150538523,2188686601,2190510162,2184640393,2150628370,1367,2,16,48319
1343258501,5808,78.3899993896484400,25.0928001403808600,35.1120986938476560,240.7501983642578000,2.8652610778808594,25.0874290466308600,27.6252002716064450,72,131,93,85,57,15181,2207947803,2213762971,2215475044,2150880347,2192699812,2194268772,2187285878,2150904219,1564,2,16,39181
1343258556,5808,76.1100006103515600,25.1053009033203120,35.1044998168945300,240.8755950927734400,2.3864059448242188,25.1023693084716800,27.6138591766357420,72,129,95,86,57,15188,2213197952,2219249828,2220801618,2151458368,2197950838,2199365558,2191067090,2151318976,1479,2,16,61528
1343258611,5808,73.8700027465820300,25.1054992675781250,35.1038017272949200,240.9452972412109400,2.2517681121826170,25.1065692901611330,27.6090908050537100,68,129,93,86,57,15183,2217154148,2222960356,2224062125,2151888365,2203013092,2204101741,2194441462,2151678070,1229,2,16,64009
1343258668,5804,71.4899978637695300,25.1072006225585940,35.1032981872558600,240.8497009277343800,2.0355999469757080,25.1133098602294920,27.6107501983642580,67,129,96,86,55,15187,2223223488,2229539264,2230808073,2152680402,2208588800,2209467346,2198326957,2152127670,980,2,16,47254
1343258723,5806,69.1200027465820300,25.1212997436523440,35.0996017456054700,240.7270965576172000,1.6635509729385376,25.1249198913574220,27.6114692687988280,65,129,92,86,60,15186,2230686619,2237387062,2238547264,2153622134,2215531309,2216090304,2203172425,2152702884,1095,2,16,18782
1343258778,5809,66.7699966430664000,25.1523990631103500,35.0984001159668000,240.8699951171875000,0.7963210940361023,25.1519908905029300,27.5946807861328120,67,131,93,87,56,15174,2236998619,2244110308,2245330020,2154523867,2222346093,2222554368,2207837412,2153263268,874,2,16,1962
1343258833,5805,64.4599990844726600,25.1622009277343750,35.0984992980957000,240.8641967773437500,0.3068447113037109,25.1672592163085940,27.5888099670410160,65,131,96,87,55,15172,2241815707,2248546441,2249159744,2155514779,2228346340,2227824777,2211287972,2153666505,658,2,16,52003
1343258888,5810,62.1599998474121100,25.1973991394042970,35.1007003784179700,240.8112030029297000,-0.6308019161224365,25.1965293884277340,27.5796108245849600,64,132,95,86,57,15164,2249534976,2256411035,2256720146,2156898285,2236071533,2235074523,2216558665,2154377362,327,2,16,19432
1343258943,5812,60.0099983215332000,25.2101993560791000,35.1007003784179700,240.8258972167968800,-1.1506680250167847,25.2127609252929700,27.5725097656250000,66,131,95,87,56,15172,2256978285,2264382774,2264590866,2158360896,2244730569,2243258194,2222445732,2155169536,3206,2,16,9284
1343259000,5808,57.9700012207031250,25.2217998504638670,35.1006011962890600,240.7277984619140600,-1.5918550491333008,25.2265396118164060,27.5716209411621100,64,131,94,86,57,15167,2264514934,2272339044,2272565238,2160299529,2252293897,2250222857,2227417874,2155980726,2956,2,17,18919
1343259055,5808,56.0800018310546900,25.2492008209228500,35.0992012023925800,240.7362060546875000,-2.3919129371643066,25.2515201568603500,27.5612297058105470,63,129,95,85,56,15162,2271118308,2278759158,2278283254,2161190089,2260886418,2258235620,2233072996,2156640448,2999,2,16,43536
1343259122,5808,54.0999984741210940,25.2950000762939450,35.1001014709472660,240.3769073486328000,-3.9179739952087402,25.2991790771484380,27.5586204528808600,62,128,96,87,57,15171,2277451830,2285137682,2284471067,2163053696,2268596269,2264960137,2237285238,2157357997,2990,2,16,48720
1343259201,5809,52.3400001525878900,25.3258991241455080,35.0997009277343750,240.2192993164062500,-5.1122097969055180,25.3365001678466800,27.5509700775146500,62,130,94,86,56,15166,2284628306,2292341586,2291221659,2165222235,2276787547,2272078948,2241845238,2158153051,2686,2,16,33265
1343259292,5810,50.4199981689453100,25.3304004669189450,35.1002998352050800,240.2178955078125000,-5.3451948165893555,25.3437690734863280,27.5480403900146500,61,132,94,89,57,15158,2292977344,2300520054,2298758884,2167151250,2290123419,2284770166,2251037248,2159413229,2839,2,16,65427
1343259369,5805,47.9300003051757800,25.3505992889404300,35.1001014709472660,240.1799011230468800,-5.7868747711181640,25.3575801849365230,27.5443401336669920,60,131,96,86,55,15157,2311319104,2320180160,2319375661,2172707629,2304839753,2297537334,2259480064,2160830272,3039,2,16,12703
1343259424,5808,45.2999992370605500,25.3749008178710940,35.0996017456054700,240.1894989013672000,-6.5057959556579590,25.3800392150878900,27.5351295471191400,59,129,95,87,57,15158,2318678592,2326764342,2324822272,2176574189,2323353801,2314525046,2270864960,2162774582,2586,2,16,4211
1343259479,5809,42.5900001525878900,25.3911991119384770,35.0985984802246100,240.1808013916015600,-7.1201739311218260,25.3992500305175780,27.5280494689941400,58,128,97,86,55,15158,2338897526,2348362486,2347063789,2183365202,2343545051,2332580160,2283531885,2165440466,2465,2,16,60400
1343259534,5809,39.9000015258789060,25.4328994750976560,35.0966987609863300,239.9985961914062500,-8.4049882888793950,25.4394092559814450,27.5203094482421880,57,132,95,87,57,15171,2348132873,2356530459,2353977481,2188902336,2362040356,2348864274,2294439835,2167664768,2564,2,17,59345
1343259589,5809,37.3699989318847660,25.4580001831054700,35.0946006774902340,239.9010925292968800,-9.2858877182006840,25.4669609069824220,27.5139408111572270,56,129,96,86,57,15161,2367169417,2376353554,2374399954,2198294454,2380207040,2364632018,2305082450,2170324086,2544,1,16,41207
1343259644,5809,35.0299987792968750,25.5011005401611330,35.0922012329101560,239.7366943359375000,-10.6105298995971680,25.5083904266357420,27.5048904418945300,56,129,98,86,54,15158,2365362477,2371753289,2367822089,2201196004,2398247725,2379489097,2313570413,2172695990,2238,2,16,45001
1343259701,5807,32.7200012207031250,25.6289005279541000,35.0868988037109400,239.0207061767578000,-14.7011098861694340,25.6363906860351560,27.4867305755615230,54,128,96,85,59,15169,2388015835,2395532580,2392327122,2211605083,2421530276,2401164973,2329694820,2176447030,2024,2,16,55631
1343259756,5810,30.7500000000000000,25.7763004302978500,35.0929985046386700,237.7487030029297000,-19.1909694671630860,25.7770004272460940,27.4883193969726560,53,120,94,83,56,15176,2406638253,2416167862,2414152420,2222288493,2442145188,2418382784,2340105078,2179796452,2162,2,16,52280
1343259811,5810,29.0799999237060550,25.7812004089355470,35.0948982238769500,237.4745941162109400,-19.7326698303222660,25.7939796447753900,27.4940605163574220,53,121,89,85,62,15178,2412515282,2423789010,2424009709,2232871414,2452692754,2425620608,2343902893,2180735478,2266,3,16,35731
1343259878,5807,26.9200000762939450,25.7863006591796880,35.0943984985351560,237.0471954345703000,-19.9983100891113280,25.8022994995117200,27.5098495483398440,52,123,94,84,51,15192,2419183195,2428847140,2427572854,2239787163,2485143670,2454132781,2363162870,2185776384,2396,1,16,49070
1343259933,5806,25.0100002288818360,25.7875003814697270,35.0947990417480500,236.9909057617187500,-20.0431594848632800,25.8037109375000000,27.5118904113769530,51,123,92,86,57,15190,2440737600,2453272941,2454500214,2257677147,2504466377,2470320530,2373577161,2189539520,2485,2,16,3940
